C/2020 B2 ( Lemmon )

Japanese version
Home page
Updated on February 8, 2020

---------------------------------------------------------------------

* Profile

Discovery Date January 19, 2020
Magnitude 21.1 mag
Discoverer R. A. Kowalski (Mt. Lemmon Survey)

* Orbital Elements

Epoch 2020 Feb. 1.0 TT = JDT 2458880.5                                          
T 2020 Jan. 23.56880 TT                                 Bell                    
q   2.7628491            (2000.0)            P               Q                  
z  +0.0165779      Peri.  142.75568     -0.75917716     -0.64597610             
 +/-0.0000000      Node   354.44667     +0.18501134     -0.09664960             
e   0.9541978      Incl.   55.52925     +0.62403594     -0.75721445             
From 88 observations 2020 Jan. 19-Feb. 5, mean residual 0".4.                   

* Magnitudes Graph

        m1 = 14.5 + 5 log d + 10.0 log r

---------------------------------------------------------------------

The orbital elements are published on M.P.E.C. 2020-C110.
The magnitudes graphs are made with Comet for Windows.

---------------------------------------------------------------------

Copyright(C) Seiichi Yoshida (comet@aerith.net). All rights reserved.